Time,TemperatureF,DewpointF,PressureIn,WindDirection,WindDirectionDegrees,WindSpeedMPH,WindSpeedGustMPH,Humidity,HourlyPrecipIn,Conditions,Clouds,dailyrainin,SoftwareType,DateUTC
2013-06-09 00:03:00,66.0,65.0,30.09,SSW,194,0.0,0.0,96,0.00,,,0.00,,2013-06-09 04:03:00,
2013-06-09 00:12:00,66.0,65.0,30.09,SSW,194,0.0,0.0,96,0.00,,,0.00,,2013-06-09 04:12:00,
2013-06-09 00:23:00,67.0,66.0,30.09,SSW,194,0.0,0.0,96,0.00,,,0.00,,2013-06-09 04:23:00,
2013-06-09 00:33:00,67.0,66.0,30.09,SSW,194,0.0,0.0,95,0.00,,,0.00,,2013-06-09 04:33:00,
2013-06-09 00:43:00,67.0,66.0,30.09,SSW,194,0.0,0.0,95,0.00,,,0.00,,2013-06-09 04:43:00,
2013-06-09 00:53:00,67.0,66.0,30.09,SSW,194,0.0,0.0,95,0.00,,,0.00,,2013-06-09 04:53:00,
2013-06-09 01:02:00,67.0,66.0,30.08,SSW,194,0.0,0.0,95,0.00,,,0.00,,2013-06-09 05:02:00,
2013-06-09 01:12:00,67.0,66.0,30.08,SSW,194,0.0,0.0,95,0.00,,,0.00,,2013-06-09 05:12:00,
2013-06-09 01:22:00,66.0,65.0,30.08,SSW,194,0.0,0.0,96,0.00,,,0.00,,2013-06-09 05:22:00,
2013-06-09 01:32:00,66.0,65.0,30.08,SSW,194,0.0,0.0,96,0.00,,,0.00,,2013-06-09 05:32:00,
2013-06-09 01:42:00,66.0,65.0,30.08,SSW,194,0.0,0.0,96,0.00,,,0.00,,2013-06-09 05:42:00,
2013-06-09 01:52:00,65.0,64.0,30.08,SSW,194,0.0,0.0,96,0.00,,,0.00,,2013-06-09 05:52:00,
2013-06-09 02:02:00,65.0,64.0,30.07,SSW,194,0.0,0.0,97,0.00,,,0.00,,2013-06-09 06:02:00,
2013-06-09 02:12:00,65.0,64.0,30.07,SSW,194,0.0,0.0,97,0.00,,,0.00,,2013-06-09 06:12:00,
2013-06-09 02:22:00,65.0,64.0,30.08,SSW,194,0.0,0.0,98,0.00,,,0.00,,2013-06-09 06:22:00,
2013-06-09 02:32:00,65.0,64.0,30.07,SSW,194,0.0,0.0,98,0.00,,,0.00,,2013-06-09 06:32:00,
2013-06-09 02:42:00,65.0,64.0,30.07,SSW,194,0.0,0.0,98,0.00,,,0.00,,2013-06-09 06:42:00,
2013-06-09 02:52:00,65.0,64.0,30.07,SSW,194,0.0,0.0,98,0.00,,,0.00,,2013-06-09 06:52:00,
2013-06-09 03:02:00,65.0,65.0,30.07,SSW,194,0.0,0.0,99,0.00,,,0.00,,2013-06-09 07:02:00,
2013-06-09 03:12:00,65.0,65.0,30.07,SSW,194,0.0,0.0,99,0.00,,,0.00,,2013-06-09 07:12:00,
2013-06-09 03:22:00,64.0,64.0,30.08,SSW,194,0.0,0.0,99,0.00,,,0.00,,2013-06-09 07:22:00,
2013-06-09 03:32:00,64.0,64.0,30.08,SSW,194,0.0,0.0,99,0.00,,,0.00,,2013-06-09 07:32:00,
2013-06-09 03:42:00,64.0,64.0,30.08,SSW,194,0.0,0.0,99,0.00,,,0.00,,2013-06-09 07:42:00,
2013-06-09 03:52:00,64.0,64.0,30.08,SSW,194,0.0,0.0,99,0.00,,,0.00,,2013-06-09 07:52:00,
2013-06-09 04:02:00,64.0,64.0,30.08,SSW,194,0.0,0.0,99,0.00,,,0.00,,2013-06-09 08:02:00,
2013-06-09 04:12:00,64.0,64.0,30.08,SSW,194,0.0,0.0,99,0.00,,,0.00,,2013-06-09 08:12:00,
2013-06-09 04:22:00,63.0,63.0,30.08,SSW,194,0.0,0.0,99,0.00,,,0.00,,2013-06-09 08:22:00,
2013-06-09 04:32:00,63.0,63.0,30.08,SSW,194,0.0,0.0,100,0.00,,,0.00,,2013-06-09 08:32:00,
2013-06-09 04:42:00,63.0,63.0,30.08,SSW,194,0.0,0.0,100,0.00,,,0.00,,2013-06-09 08:42:00,
2013-06-09 04:53:00,63.0,63.0,30.08,SSW,194,0.0,0.0,100,0.00,,,0.00,,2013-06-09 08:53:00,
2013-06-09 05:02:00,63.0,63.0,30.08,SSW,194,0.0,0.0,99,0.00,,,0.00,,2013-06-09 09:02:00,
2013-06-09 05:12:00,63.0,63.0,30.08,SSW,194,0.0,0.0,99,0.00,,,0.00,,2013-06-09 09:12:00,
2013-06-09 05:22:00,63.0,63.0,30.08,SSW,194,0.0,0.0,100,0.00,,,0.00,,2013-06-09 09:22:00,
2013-06-09 05:33:00,63.0,63.0,30.08,SSW,194,0.0,0.0,100,0.00,,,0.00,,2013-06-09 09:33:00,
2013-06-09 05:43:00,63.0,63.0,30.08,SSW,194,0.0,0.0,100,0.00,,,0.00,,2013-06-09 09:43:00,
2013-06-09 05:52:00,63.0,63.0,30.08,SSW,194,0.0,0.0,100,0.00,,,0.00,,2013-06-09 09:52:00,
2013-06-09 06:03:00,63.0,63.0,30.08,SSW,194,0.0,0.0,100,0.00,,,0.00,,2013-06-09 10:03:00,
2013-06-09 06:12:00,63.0,63.0,30.08,SSW,194,0.0,0.0,100,0.00,,,0.00,,2013-06-09 10:12:00,
2013-06-09 06:23:00,63.0,63.0,30.08,SSW,194,0.0,0.0,100,0.00,,,0.00,,2013-06-09 10:23:00,
2013-06-09 06:32:00,63.0,63.0,30.09,SSW,194,0.0,0.0,100,0.00,,,0.00,,2013-06-09 10:32:00,
2013-06-09 06:43:00,63.0,63.0,30.09,SSW,194,0.0,0.0,100,0.00,,,0.00,,2013-06-09 10:43:00,
2013-06-09 06:52:00,62.0,62.0,30.10,SSW,194,0.0,0.0,100,0.00,,,0.00,,2013-06-09 10:52:00,
2013-06-09 07:02:00,62.0,62.0,30.10,SSW,194,0.0,0.0,100,0.00,,,0.00,,2013-06-09 11:02:00,
2013-06-09 07:12:00,62.0,62.0,30.10,SSW,194,0.0,0.0,100,0.00,,,0.00,,2013-06-09 11:12:00,
2013-06-09 07:22:00,62.0,62.0,30.10,SSW,194,0.0,0.0,100,0.00,,,0.00,,2013-06-09 11:22:00,
2013-06-09 07:32:00,62.0,62.0,30.10,SSW,194,0.0,0.0,100,0.00,,,0.00,,2013-06-09 11:32:00,
2013-06-09 07:42:00,62.0,62.0,30.10,SSW,194,0.0,0.0,100,0.00,,,0.00,,2013-06-09 11:42:00,
2013-06-09 07:53:00,63.0,63.0,30.10,SSW,194,0.0,0.0,100,0.00,,,0.00,,2013-06-09 11:53:00,
2013-06-09 08:02:00,64.0,64.0,30.10,SSW,208,0.0,0.0,100,0.00,,,0.00,,2013-06-09 12:02:00,
2013-06-09 08:12:00,64.0,64.0,30.10,SSW,208,0.0,0.0,100,0.00,,,0.00,,2013-06-09 12:12:00,
2013-06-09 08:22:00,65.0,65.0,30.11,South,186,0.0,0.0,99,0.00,,,0.00,,2013-06-09 12:22:00,
2013-06-09 08:32:00,66.0,65.0,30.11,SW,225,0.0,2.0,98,0.00,,,0.00,,2013-06-09 12:32:00,
2013-06-09 08:42:00,66.0,65.0,30.11,SW,225,0.0,2.0,98,0.00,,,0.00,,2013-06-09 12:42:00,
2013-06-09 08:52:00,67.0,66.0,30.11,South,191,0.0,0.0,97,0.00,,,0.00,,2013-06-09 12:52:00,
2013-06-09 09:02:00,69.0,68.0,30.11,South,191,0.0,0.0,95,0.00,,,0.00,,2013-06-09 13:02:00,
2013-06-09 09:12:00,69.0,68.0,30.11,South,191,0.0,0.0,95,0.00,,,0.00,,2013-06-09 13:12:00,
2013-06-09 09:22:00,70.0,68.0,30.11,SSW,211,2.0,2.0,92,0.00,,,0.00,,2013-06-09 13:22:00,
2013-06-09 09:32:00,71.0,68.0,30.11,South,190,2.0,2.0,89,0.00,,,0.00,,2013-06-09 13:32:00,
2013-06-09 09:42:00,72.0,68.0,30.11,SSE,159,2.0,3.0,87,0.00,,,0.00,,2013-06-09 13:42:00,
2013-06-09 09:52:00,72.0,68.0,30.11,SSE,159,2.0,3.0,87,0.00,,,0.00,,2013-06-09 13:52:00,
2013-06-09 10:02:00,73.0,68.0,30.11,SSE,153,1.0,0.0,85,0.00,,,0.00,,2013-06-09 14:02:00,
2013-06-09 10:12:00,73.0,68.0,30.11,SSE,153,1.0,0.0,85,0.00,,,0.00,,2013-06-09 14:12:00,
2013-06-09 10:22:00,74.0,68.0,30.11,SSE,155,1.0,1.0,83,0.00,,,0.00,,2013-06-09 14:22:00,
2013-06-09 10:32:00,75.0,69.0,30.11,South,181,1.0,2.0,81,0.00,,,0.00,,2013-06-09 14:32:00,
2013-06-09 10:42:00,75.0,69.0,30.11,South,181,1.0,2.0,81,0.00,,,0.00,,2013-06-09 14:42:00,
2013-06-09 10:52:00,76.0,69.0,30.11,SSE,159,2.0,2.0,79,0.00,,,0.00,,2013-06-09 14:52:00,
2013-06-09 11:02:00,75.0,68.0,30.11,SSE,166,3.0,3.0,78,0.00,,,0.00,,2013-06-09 15:02:00,
2013-06-09 11:12:00,75.0,68.0,30.11,SSE,166,3.0,3.0,78,0.00,,,0.00,,2013-06-09 15:12:00,
2013-06-09 11:22:00,75.0,69.0,30.11,SSW,193,1.0,1.0,81,0.00,,,0.00,,2013-06-09 15:22:00,
2013-06-09 11:33:00,77.0,70.0,30.11,SE,146,1.0,0.0,79,0.00,,,0.00,,2013-06-09 15:33:00,
2013-06-09 11:43:00,77.0,70.0,30.11,SE,146,1.0,0.0,79,0.00,,,0.00,,2013-06-09 15:43:00,
2013-06-09 11:53:00,77.0,68.0,30.11,SSE,160,1.0,1.0,73,0.00,,,0.00,,2013-06-09 15:53:00,
2013-06-09 12:03:00,77.0,68.0,30.11,SSE,149,2.0,2.0,73,0.00,,,0.00,,2013-06-09 16:03:00,
2013-06-09 12:13:00,77.0,68.0,30.11,SSE,149,2.0,2.0,73,0.00,,,0.00,,2013-06-09 16:13:00,
2013-06-09 12:23:00,78.0,68.0,30.10,SSE,165,1.0,2.0,72,0.00,,,0.00,,2013-06-09 16:23:00,
2013-06-09 12:33:00,78.0,69.0,30.11,ESE,111,0.0,0.0,74,0.00,,,0.00,,2013-06-09 16:33:00,
2013-06-09 12:42:00,78.0,69.0,30.11,ESE,111,0.0,0.0,74,0.00,,,0.00,,2013-06-09 16:42:00,
2013-06-09 12:53:00,79.0,69.0,30.11,SSW,194,3.0,3.0,71,0.00,,,0.00,,2013-06-09 16:53:00,
2013-06-09 13:03:00,78.0,69.0,30.10,South,177,2.0,2.0,74,0.00,,,0.00,,2013-06-09 17:03:00,
2013-06-09 13:12:00,78.0,69.0,30.10,South,177,2.0,2.0,74,0.00,,,0.00,,2013-06-09 17:12:00,
2013-06-09 13:22:00,77.0,67.0,30.09,SE,124,2.0,5.0,72,0.00,,,0.00,,2013-06-09 17:22:00,
2013-06-09 13:32:00,80.0,69.0,30.08,SSE,149,2.0,2.0,70,0.00,,,0.00,,2013-06-09 17:32:00,
2013-06-09 13:42:00,80.0,69.0,30.08,SSE,149,2.0,2.0,70,0.00,,,0.00,,2013-06-09 17:42:00,
2013-06-09 13:52:00,80.0,69.0,30.07,SE,139,2.0,2.0,70,0.00,,,0.00,,2013-06-09 17:52:00,
2013-06-09 14:02:00,80.0,71.0,30.06,ESE,105,0.0,0.0,73,0.00,,,0.00,,2013-06-09 18:02:00,
2013-06-09 14:12:00,80.0,71.0,30.06,ESE,105,0.0,0.0,73,0.00,,,0.00,,2013-06-09 18:12:00,
2013-06-09 14:22:00,80.0,69.0,30.05,SSE,149,3.0,0.0,70,0.00,,,0.00,,2013-06-09 18:22:00,
2013-06-09 14:32:00,79.0,70.0,30.05,SE,124,0.0,0.0,74,0.00,,,0.00,,2013-06-09 18:32:00,
2013-06-09 14:42:00,79.0,70.0,30.05,SE,124,0.0,0.0,74,0.00,,,0.00,,2013-06-09 18:42:00,
2013-06-09 14:52:00,78.0,71.0,30.05,ESE,115,2.0,2.0,78,0.00,,,0.00,,2013-06-09 18:52:00,
2013-06-09 15:02:00,74.0,72.0,30.05,ENE,65,0.0,0.0,93,0.00,,,0.00,,2013-06-09 19:02:00,
2013-06-09 15:12:00,74.0,72.0,30.05,ENE,65,0.0,0.0,93,0.00,,,0.00,,2013-06-09 19:12:00,
2013-06-09 15:22:00,72.0,71.0,30.05,NE,45,0.0,0.0,97,0.01,,,0.00,,2013-06-09 19:22:00,
2013-06-09 15:32:00,71.0,70.0,30.03,ENE,62,0.0,0.0,98,0.01,,,0.00,,2013-06-09 19:32:00,
2013-06-09 15:42:00,71.0,70.0,30.03,ENE,62,0.0,0.0,98,0.01,,,0.00,,2013-06-09 19:42:00,
2013-06-09 15:52:00,71.0,70.0,30.05,ENE,62,0.0,0.0,98,0.01,,,0.00,,2013-06-09 19:52:00,
2013-06-09 16:02:00,69.0,68.0,30.06,NW,315,3.0,4.0,98,0.01,,,0.00,,2013-06-09 20:02:00,
2013-06-09 16:12:00,69.0,68.0,30.06,NW,315,3.0,4.0,98,0.01,,,0.00,,2013-06-09 20:12:00,
2013-06-09 16:22:00,67.0,67.0,30.07,WSW,249,0.0,0.0,99,0.00,,,0.00,,2013-06-09 20:22:00,
2013-06-09 16:32:00,66.0,66.0,30.07,NNW,328,3.0,3.0,100,0.00,,,0.00,,2013-06-09 20:32:00,
2013-06-09 16:42:00,66.0,66.0,30.07,NNW,328,3.0,3.0,100,0.00,,,0.00,,2013-06-09 20:42:00,
2013-06-09 16:52:00,65.0,65.0,30.07,West,278,0.0,0.0,100,0.00,,,0.00,,2013-06-09 20:52:00,
2013-06-09 17:02:00,65.0,65.0,30.07,West,278,0.0,0.0,100,0.00,,,0.00,,2013-06-09 21:02:00,
2013-06-09 17:12:00,66.0,66.0,30.06,NW,305,0.0,0.0,100,0.24,,,0.00,,2013-06-09 21:12:00,
2013-06-09 17:22:00,66.0,66.0,30.06,NW,305,0.0,0.0,100,0.24,,,0.00,,2013-06-09 21:22:00,
2013-06-09 17:33:00,66.0,66.0,30.05,NW,319,0.0,1.0,100,0.24,,,0.00,,2013-06-09 21:33:00,
2013-06-09 17:44:00,66.0,66.0,30.05,NW,319,0.0,1.0,100,0.24,,,0.00,,2013-06-09 21:44:00,
2013-06-09 17:53:00,67.0,67.0,30.05,NW,323,0.0,0.0,100,0.24,,,0.00,,2013-06-09 21:53:00,
2013-06-09 18:02:00,66.0,66.0,30.05,NW,323,0.0,0.0,100,0.24,,,0.00,,2013-06-09 22:02:00,
2013-06-09 18:13:00,66.0,66.0,30.05,NNE,18,0.0,2.0,100,0.00,,,0.00,,2013-06-09 22:13:00,
2013-06-09 18:23:00,66.0,66.0,30.05,NNE,18,0.0,2.0,100,0.00,,,0.00,,2013-06-09 22:23:00,
2013-06-09 18:33:00,66.0,66.0,30.05,East,79,2.0,2.0,100,0.00,,,0.00,,2013-06-09 22:33:00,
2013-06-09 18:42:00,66.0,66.0,30.05,East,79,2.0,2.0,100,0.00,,,0.00,,2013-06-09 22:42:00,
2013-06-09 18:52:00,66.0,66.0,30.04,ENE,72,0.0,0.0,100,0.00,,,0.00,,2013-06-09 22:52:00,
2013-06-09 19:02:00,66.0,66.0,30.05,ESE,118,1.0,2.0,100,0.00,,,0.00,,2013-06-09 23:02:00,
2013-06-09 19:12:00,66.0,66.0,30.05,SE,138,3.0,3.0,100,0.08,,,0.00,,2013-06-09 23:12:00,
2013-06-09 19:22:00,66.0,66.0,30.05,SE,138,3.0,3.0,100,0.08,,,0.00,,2013-06-09 23:22:00,
2013-06-09 19:32:00,66.0,66.0,30.05,SE,142,1.0,2.0,100,0.08,,,0.00,,2013-06-09 23:32:00,
2013-06-09 19:43:00,66.0,66.0,30.05,SE,142,1.0,2.0,100,0.08,,,0.00,,2013-06-09 23:43:00,
2013-06-09 19:52:00,66.0,66.0,30.04,SE,127,2.0,0.0,100,0.08,,,0.00,,2013-06-09 23:52:00,
2013-06-09 20:02:00,66.0,66.0,30.03,ESE,115,0.0,0.0,100,0.08,,,0.00,,2013-06-10 00:02:00,
2013-06-09 20:13:00,66.0,66.0,30.03,ESE,115,0.0,0.0,100,0.08,,,0.00,,2013-06-10 00:13:00,
2013-06-09 20:22:00,66.0,66.0,30.03,SE,131,0.0,0.0,100,0.07,,,0.00,,2013-06-10 00:22:00,
2013-06-09 20:32:00,66.0,66.0,30.03,South,170,0.0,2.0,100,0.07,,,0.00,,2013-06-10 00:32:00,
2013-06-09 20:42:00,66.0,66.0,30.03,South,170,0.0,2.0,100,0.07,,,0.00,,2013-06-10 00:42:00,
2013-06-09 20:52:00,65.0,65.0,30.02,ESE,115,2.0,2.0,100,0.07,,,0.00,,2013-06-10 00:52:00,
2013-06-09 21:02:00,65.0,65.0,30.02,SE,129,0.0,0.0,100,0.07,,,0.00,,2013-06-10 01:02:00,
2013-06-09 21:12:00,65.0,65.0,30.02,SE,129,0.0,0.0,100,0.07,,,0.00,,2013-06-10 01:12:00,
2013-06-09 21:22:00,65.0,65.0,30.02,SE,129,0.0,0.0,100,0.01,,,0.00,,2013-06-10 01:22:00,
2013-06-09 21:32:00,65.0,65.0,30.02,ESE,108,0.0,0.0,100,0.01,,,0.00,,2013-06-10 01:32:00,
2013-06-09 21:43:00,65.0,65.0,30.02,ESE,108,0.0,0.0,100,0.01,,,0.00,,2013-06-10 01:43:00,
2013-06-09 21:52:00,65.0,65.0,30.02,SE,139,0.0,2.0,100,0.01,,,0.00,,2013-06-10 01:52:00,
2013-06-09 22:02:00,65.0,65.0,30.02,ESE,108,0.0,0.0,100,0.01,,,0.00,,2013-06-10 02:02:00,
2013-06-09 22:12:00,65.0,65.0,30.02,ESE,108,0.0,0.0,100,0.01,,,0.00,,2013-06-10 02:12:00,
2013-06-09 22:22:00,65.0,65.0,30.02,ESE,111,0.0,0.0,100,0.01,,,0.00,,2013-06-10 02:22:00,
2013-06-09 22:32:00,65.0,65.0,30.02,SE,135,0.0,0.0,100,0.02,,,0.00,,2013-06-10 02:32:00,
2013-06-09 22:42:00,65.0,65.0,30.02,SE,135,0.0,0.0,100,0.02,,,0.00,,2013-06-10 02:42:00,
2013-06-09 22:52:00,65.0,65.0,30.02,ENE,75,1.0,0.0,100,0.02,,,0.00,,2013-06-10 02:52:00,
2013-06-09 23:02:00,65.0,65.0,30.01,SSE,150,1.0,0.0,100,0.02,,,0.00,,2013-06-10 03:02:00,
2013-06-09 23:12:00,65.0,65.0,30.01,SSE,150,1.0,0.0,100,0.02,,,0.00,,2013-06-10 03:12:00,
2013-06-09 23:22:00,65.0,65.0,30.00,ESE,107,2.0,0.0,100,0.03,,,0.00,,2013-06-10 03:22:00,
2013-06-09 23:33:00,65.0,65.0,30.00,SE,132,3.0,0.0,100,0.03,,,0.00,,2013-06-10 03:33:00,
2013-06-09 23:43:00,65.0,65.0,30.00,SE,132,3.0,0.0,100,0.03,,,0.00,,2013-06-10 03:43:00,
2013-06-09 23:53:00,65.0,65.0,30.01,SE,142,1.0,1.0,100,0.03,,,0.00,,2013-06-10 03:53:00,